Regional Weather Roundup
Issued by NWS

Home | Current Version | Previous Version | Graphics & Text | Print | Product List | Glossary On
Versions: 1 2 3 4 5 6 7 8 9 10 11 12 13 14 15 16 17 18 19 20 21 22 23 24 25 26 27 28 29 30 31 32 33 34 35 36 37 38 39 40 41 42 43 44 45 46 47 48 49 50
000
ASUS43 KMKX 271821
RWRWI

WISCONSIN REGIONAL WEATHER ROUNDUP
NATIONAL WEATHER SERVICE MILWAUKEE/SULLIVAN WI
100 PM CDT WED JUL 27 2016

NOTE: "FAIR" INDICATES FEW OR NO CLOUDS BELOW 12,000 FEET WITH NO
SIGNIFICANT WEATHER AND/OR OBSTRUCTIONS TO VISIBILITY.

WIZ001-002-006>008-014>016-023>028-271900-
NORTHWEST WISCONSIN

CITY           SKY/WX    TMP DP  RH WIND       PRES   REMARKS
SUPERIOR ARPT  LGT RAIN  62  60  94 NE15G23   30.00F
6HR MIN TEMP:  62; 6HR MAX TEMP:  67; 6HR PCP:  0.05;

ASHLAND        CLOUDY    66  62  87 N10       30.03R
6HR MIN TEMP:  66; 6HR MAX TEMP:  72; 6HR PCP:  0.02;

HAYWARD        CLOUDY    71  67  87 NE5       30.01R
6HR MIN TEMP:  65; 6HR MAX TEMP:  71; 6HR PCP:  0.13;

SIREN          NOT AVBL
CUMBERLAND     CLOUDY    72  64  78 SE6       29.98F
RICE LAKE      CLOUDY    75  66  73 E8        29.99F
6HR MIN TEMP:  68; 6HR MAX TEMP:  76;

CHETEK         CLOUDY    76  68  77 MISG      29.99S
6HR MIN TEMP:  68; 6HR MAX TEMP:  78;

LADYSMITH      CLOUDY    75  64  69 CALM      30.02F
6HR MIN TEMP:  66; 6HR MAX TEMP:  75; 6HR PCP:  0.15;

EAU CLAIRE     CLOUDY    79  68  69 VRB3      29.97F HX  81
6HR MIN TEMP:  72; 6HR MAX TEMP:  81;

MENOMONIE      PTSUNNY   80  69  69 E7        29.97F HX  83
6HR MIN TEMP:  70; 6HR MAX TEMP:  82;

NEW RICHMOND   PTSUNNY   80  67  65 S7        29.97S HX  82
6HR MIN TEMP:  71; 6HR MAX TEMP:  80;

OSCEOLA        CLOUDY    79  68  70 S6        29.99R HX  81
6HR MIN TEMP:  70; 6HR MAX TEMP:  79;

$$

WIZ003>005-009-010-017-018-271900-
NORTH CENTRAL WISCONSIN

CITY           SKY/WX    TMP DP  RH WIND       PRES   REMARKS
MANITOWISH WTR CLOUDY    70  67  90 CALM      30.04S
6HR MIN TEMP:  64; 6HR MAX TEMP:  72; 6HR PCP:  0.03;

ARBOR VITAE    CLOUDY    72  66  81 CALM      30.03F
6HR MIN TEMP:  65; 6HR MAX TEMP:  72; 6HR PCP:  0.06;

WOODRUFF       CLOUDY    72  66  81 CALM      30.03F
6HR MIN TEMP:  65; 6HR MAX TEMP:  72; 6HR PCP:  0.06;

RHINELANDER    PTSUNNY   72  64  76 N3        30.04R
6HR MIN TEMP:  64; 6HR MAX TEMP:  74; 6HR PCP:  0.16;

EAGLE RIVER    PTSUNNY   70  64  80 CALM      30.03F
6HR MIN TEMP:  63; 6HR MAX TEMP:  70;

LAND O LAKES   LGT RAIN  69  66  92 CALM      30.04R
6HR MIN TEMP:  64; 6HR MAX TEMP:  69; 6HR PCP:  0.27;

PHILLIPS       CLOUDY    70  66  88 CALM      30.02S
TOMAHAWK       CLOUDY    70  66  85 CALM      30.03F
6HR MIN TEMP:  62; 6HR MAX TEMP:  70;

MEDFORD        PTSUNNY   73  68  83 SE6       30.02S
6HR MIN TEMP:  64; 6HR MAX TEMP:  73; 6HR PCP:  0.01;

MERRILL        CLOUDY    71  67  87 SE3       30.03S
6HR MIN TEMP:  63; 6HR MAX TEMP:  71; 6HR PCP:  0.19;

$$

WIZ029-030-035-036-043>047-271900-
CENTRAL WISCONSIN

CITY           SKY/WX    TMP DP  RH WIND       PRES   REMARKS
WAUSAU         PTSUNNY   76  67  73 S6        30.00S
6HR MIN TEMP:  65; 6HR MAX TEMP:  76; 6HR PCP:  0.24;

MOSINEE        SUNNY     77  68  73 CALM      30.03S
MARSHFIELD     PTSUNNY   81  66  60 CALM      30.00F HX  83
6HR MIN TEMP:  69; 6HR MAX TEMP:  81;

STEVENS POINT  MOSUNNY   76  66  71 E7        30.02S
6HR MIN TEMP:  65; 6HR MAX TEMP:  79; 6HR PCP:  0.04;

WAUPACA        LGT RAIN  73  71  95 CALM      30.01F
6HR MIN TEMP:  68; 6HR MAX TEMP:  83; 6HR PCP:  0.07;

WAUTOMA        LGT RAIN  69  66  90 E8        30.02S
6HR MIN TEMP:  67; 6HR MAX TEMP:  84; 6HR PCP:  0.22;

WISC RAPIDS    MOSUNNY   81  64  56 E6        30.02F HX  82
6HR MIN TEMP:  70; 6HR MAX TEMP:  82; 6HR PCP: TRACE;

CAMP DOUGLAS   PTSUNNY   84  70  61 VRB5      29.99F HX  88
$$

WIZ011>013-019>022-031-037>040-048>050-271900-
NORTHEAST WISCONSIN

CITY           SKY/WX    TMP DP  RH WIND       PRES   REMARKS
ANTIGO         CLOUDY    69  66  90 CALM      30.04S
6HR MIN TEMP:  64; 6HR MAX TEMP:  70; 6HR PCP:  0.10;

SHAWANO        PTSUNNY   74  67  76 S6        30.00F
6HR MIN TEMP:  71; 6HR MAX TEMP:  79; 6HR PCP:  0.09;

OCONTO         CLOUDY    72  71  99 SW3       30.00F
6HR MIN TEMP:  69; 6HR MAX TEMP:  77;

STURGEON BAY   NOT AVBL
GREEN BAY      LGT RAIN  73  68  84 NW5       30.02F
6HR MIN TEMP:  70; 6HR MAX TEMP:  82; 6HR PCP: TRACE;

MANITOWOC      CLOUDY    81  68  64 N14       30.00F HX  84
6HR MIN TEMP:  72; 6HR MAX TEMP:  83; 6HR PCP:  0.01;

APPLETON       DRIZZLE   72  64  78 VRB6      30.01F
CLINTONVILLE   CLOUDY    73  64  73 NE6       30.00F
OSHKOSH        LGT RAIN  73  68  84 NE10      30.01S
6HR MIN TEMP:  72; 6HR MAX TEMP:  86; 6HR PCP:  0.21;

$$

WIZ032>034-041-042-053>061-271900-
SOUTHWEST WISCONSIN

CITY           SKY/WX    TMP DP  RH WIND       PRES   REMARKS
LA CROSSE      CLOUDY    84  67  56 S8        29.97F HX  86
6HR MIN TEMP:  73; 6HR MAX TEMP:  86;

SPARTA         CLOUDY    82  69  62 S6        29.99S HX  85
6HR MIN TEMP:  64; 6HR MAX TEMP:  83;

VIROQUA        CLOUDY    81  65  58 CALM      30.02S HX  83
6HR MIN TEMP:  68; 6HR MAX TEMP:  82;

BOSCOBEL       CLOUDY    85  67  54 CALM      30.00R HX  87
6HR MIN TEMP:  67; 6HR MAX TEMP:  86;

PRAIRIE DU CHI PTSUNNY   83  65  56 SE5       29.98F HX  84
6HR MIN TEMP:  66; 6HR MAX TEMP:  83;

PLATTEVILLE    MOSUNNY   82  67  59 SE6       30.02S HX  85
6HR MIN TEMP:  69; 6HR MAX TEMP:  82;

$$

WIZ056-057-062-063-064-067-068-271900-
SOUTH CENTRAL WISCONSIN

CITY           SKY/WX    TMP DP  RH WIND       PRES   REMARKS
REEDSBURG      MOSUNNY   82  69  64 CALM      29.99F HX  86
6HR MIN TEMP:  65; 6HR MAX TEMP:  83;

BARABOO/DELLS  MOSUNNY   83  66  57 SW5       30.00F HX  85
6HR MIN TEMP:  69; 6HR MAX TEMP:  84;

LONE ROCK      PTSUNNY   84  67  56 CALM      30.00F HX  86
6HR MIN TEMP:  65; 6HR MAX TEMP:  85;

MINERAL POINT  CLOUDY    84  68  58 S3        30.02S HX  87
MADISON        PTSUNNY   85  66  53 SW6       29.99F HX  87
6HR MIN TEMP:  70; 6HR MAX TEMP:  85;

MIDDLETON      MOSUNNY   85  68  57 NW3       30.00F HX  88
6HR MIN TEMP:  70; 6HR MAX TEMP:  85;

WATERTOWN      MOSUNNY   84  71  63 SW7       30.01S HX  89
6HR MIN TEMP:  68; 6HR MAX TEMP:  84;

MONROE         SUNNY     82  63  51 S8        30.00F HX  83
JANESVILLE     PTSUNNY   84  64  51 W9        30.02  HX  86
$$

WIZ051-052-058>065-066-070>072-271900-
SOUTHEAST WISCONSIN

CITY           SKY/WX    TMP DP  RH WIND       PRES   REMARKS
MILWAUKEE      PTSUNNY   87  67  51 VRB5      29.99F HX  90
6HR MIN TEMP:  76; 6HR MAX TEMP:  89;

WAUKESHA       MOSUNNY   82  66  57 W7        30.03S HX  85
MILWAUKEE/TIMM MOSUNNY   88  63  42 SW7       30.00F HX  88
RACINE         MOSUNNY   86  67  52 VRB5      30.02F HX  89
6HR MIN TEMP:  72; 6HR MAX TEMP:  87;

BURLINGTON     MOSUNNY   85  64  48 CALM      30.01F HX  86
6HR MIN TEMP:  66; 6HR MAX TEMP:  85;

KENOSHA        MOSUNNY   85  66  53 NW6       30.01F HX  87
6HR MIN TEMP:  71; 6HR MAX TEMP:  87;

FOND DU LAC    LGT RAIN  74  65  73 N18G29    30.00S
6HR MIN TEMP:  70; 6HR MAX TEMP:  86;

SHEBOYGAN      CLOUDY    77  68  73 E10       29.99F THUNDER
6HR MIN TEMP:  73; 6HR MAX TEMP:  85;

WEST BEND      PTSUNNY   88  64  45 SW9       29.99F HX  89
JUNEAU         PTSUNNY   82  70  68 W5        30.02S HX  85
6HR MIN TEMP:  67; 6HR MAX TEMP:  84;

$$

LSZ147-162-271900-
LAKE SUPERIOR

STATION/POSITION TIME  TEMP    WIND        PRES    WAVE
                       AIR SEA DIR/SP/G            HT/PER
                 (UTC) (F)     (DEG/KT/KT) (MB)    (FT/S)
W MID LAKE BUOY  1750   62 60   50/ 16/ 19 1016.0F   2/ 3
DEVILS ISLAND    1800   63      80/ 20/ 23 1016.8R
PORT WING        1700   68      30/ 14/ 18 1016.3S
SAXON HARBOR     1740   69      50/  8/ 14 1015.6S
$$

LMZ867-665-643>646-271900-
LAKE MICHIGAN

STATION/POSITION TIME  TEMP    WIND        PRES    WAVE
                       AIR SEA DIR/SP/G            HT/PER
                 (UTC) (F)     (DEG/KT/KT) (MB)    (FT/S)
CHAMBERS ISLAND  1700   75     300/  6/ 12 1016.3R
S GREEN BAY BUOY 1800   72 75  270/  6/  6   N/A
N MID LAKE BUOY  1750   71C1F1C2F2C3F3C4F4C5F5C6F6C7F7C8M1C9M2Ca!



USA.gov is the U.S. government's official web portal to all federal, state and local government web resources and services.